Theta_e
315 315 315 315 316 315 315 315 315 316 317 317 316 315 315 315 315 310 303 311 311 316 319 313 310 305 304 303 303 303 297 293 294 295 297 304 303 309 311 310 311 317 329 338 350
316 315 315 315 315 316 315 315 315 315 316 316 315 314 315 314 309 304 313 316 320 321 308 305 302 301 298 300 302 300 295 294 299 300 300 302 302 304 306 309 309 312 339 345 348
316 316 316 316 317 317 316 316 316 315 315 315 315 314 314 313 302 302 315 319 320 321 309 304 305 301 297 299 299 297 294 297 299 301 302 301 302 305 304 304 309 310 317 339 345
317 317 317 317 317 316 316 316 316 316 315 314 314 314 313 309 294 318 323 321 321 319 305 303 301 298 296 295 298 294 297 299 300 301 301 300 303 302 304 306 310 311 313 313 330
317 316 317 317 316 316 316 316 316 315 314 314 313 314 309 300 300 312 323 323 320 311 303 301 299 297 294 295 297 295 297 298 300 300 301 302 299 300 301 305 308 309 310 310 314
316 316 316 316 315 316 316 316 315 314 314 314 314 314 305 296 308 317 311 320 317 311 304 302 300 300 296 296 296 298 298 298 299 299 300 298 299 300 302 306 306 308 309 311 316
316 316 316 316 316 316 316 315 314 314 314 314 314 312 302 301 310 312 320 318 317 312 303 303 303 299 298 296 300 298 296 300 300 300 298 300 295 296 302 304 304 306 309 311 316
316 316 316 315 315 315 315 315 314 314 315 314 314 310 299 310 312 310 311 312 316 311 306 306 303 300 298 300 299 297 295 293 300 300 300 298 294 301 304 303 304 307 308 310 313
316 315 315 314 315 314 314 314 314 315 315 313 310 304 298 313 307 310 311 310 313 310 308 307 304 298 297 294 295 295 292 293 296 299 298 298 297 302 306 305 305 307 308 310 313
315 314 314 314 314 313 313 313 313 314 313 312 309 299 303 302 309 311 311 313 307 307 303 300 298 293 294 293 289 291 291 293 294 299 297 296 297 302 305 304 305 307 309 310 311
315 314 313 313 314 313 311 307 304 303 306 301 301 301 304 310 314 308 309 307 306 303 296 298 292 288 292 294 296 296 294 293 297 300 298 298 299 302 304 304 305 306 308 313 313
314 313 313 314 312 312 309 301 304 307 299 306 305 304 307 309 304 305 308 302 301 296 297 294 291 296 298 298 295 295 294 294 298 300 298 299 299 303 303 304 305 306 308 311 313
313 313 313 313 312 308 304 304 310 308 298 301 305 303 305 307 303 303 305 303 299 296 296 294 296 299 297 296 295 295 294 295 295 298 300 297 297 299 301 303 304 306 308 310 313
312 312 312 312 307 306 303 308 310 309 295 298 301 305 306 308 303 312 307 303 300 296 297 296 299 296 296 296 298 294 300 298 297 295 291 296 289 297 300 301 303 305 305 308 309
311 312 312 311 305 302 306 310 310 306 285 302 302 312 309 304 305 306 308 304 298 298 298 295 296 295 295 297 299 296 299 298 297 295 294 294 292 295 298 299 302 304 307 311 311
310 310 310 308 306 307 309 309 307 294 285 300 304 302 301 304 302 305 303 307 306 300 298 298 301 300 299 300 300 300 297 294 293 294 289 294 292 293 297 299 302 306 310 310 311
311 311 309 309 302 308 308 304 294 288 302 299 300 302 300 299 300 300 300 299 296 292 292 296 297 300 301 298 300 297 294 289 287 287 287 292 290 294 298 304 305 306 308 309 311
309 308 308 308 310 308 307 300 287 294 298 304 301 301 297 300 299 299 297 296 300 298 294 291 289 296 300 298 297 297 296 290 283 284 288 291 289 295 304 307 306 306 308 311 312
306 307 302 306 309 308 302 293 292 297 300 297 300 294 297 300 299 300 298 296 299 299 293 292 292 301 303 304 302 296 293 296 290 289 289 292 294 299 304 304 305 306 307 308 310
303 299 301 309 309 306 301 294 299 304 303 300 293 296 293 296 297 299 298 300 302 303 303 297 291 299 302 304 303 300 300 293 294 285 284 289 290 293 300 302 303 305 306 307 309
302 297 307 310 308 305 295 297 301 307 304 299 296 294 294 293 297 297 297 299 301 303 303 301 296 296 300 297 296 299 297 297 296 294 288 286 290 300 302 304 303 305 306 307 307
299 293 307 309 301 301 298 300 301 303 305 302 301 298 294 294 295 296 295 297 300 303 299 300 298 293 295 299 301 299 297 298 293 291 293 291 291 305 305 306 307 306 309 310 311
294 294 306 310 296 298 302 301 303 300 299 298 297 298 297 293 292 295 295 298 302 301 300 300 295 289 290 295 298 296 297 297 297 296 292 290 292 304 305 306 308 308 309 310 311
296 291 302 302 301 298 296 296 296 301 299 300 298 298 295 292 294 294 293 296 301 302 302 300 294 292 289 290 295 292 294 295 294 291 291 292 294 299 301 302 305 309 310 308 309
296 295 297 293 295 296 298 297 295 294 298 298 296 295 294 290 290 290 293 294 298 300 299 298 291 292 292 293 293 292 293 293 292 293 289 292 291 295 298 299 301 303 305 306 307
294 295 298 296 296 295 295 296 295 295 296 294 295 295 294 291 291 290 292 292 291 297 296 296 291 291 288 290 290 289 291 292 292 292 292 292 292 299 301 302 302 302 304 304 305
299 300 297 295 295 293 294 295 295 297 296 297 297 294 292 293 296 297 297 297 296 295 293 293 291 287 283 288 288 285 289 290 291 293 292 290 296 300 299 300 299 300 302 302 301
Wind_Speed
15 15 14 14 13 12 12 12 12 12 11 10 11 11 11 11 13 6 11 12 9 10 10 10 6 7 4 5 3 3 6 10 10 11 8 3 9 7 4 8 5 3 9 9 16
16 15 15 15 15 14 14 12 12 11 11 12 12 13 11 12 11 15 15 13 14 15 9 10 8 11 5 5 5 7 6 8 4 6 11 8 10 13 9 11 10 10 7 6 9
15 15 15 15 15 14 15 15 15 12 11 11 11 11 10 10 6 7 4 18 16 14 5 3 12 5 5 4 6 5 7 6 6 9 9 13 13 9 13 20 18 13 3 6 10
15 15 16 16 16 15 14 15 15 15 15 13 11 9 7 1 7 2 9 17 17 14 8 9 8 7 6 8 6 5 8 13 8 13 11 13 13 18 21 22 15 16 14 10 12
16 17 16 16 17 16 14 14 14 15 15 14 12 8 3 4 12 4 8 14 14 12 13 13 11 6 6 4 7 9 9 9 15 14 18 19 23 27 26 19 20 20 21 21 19
15 16 15 16 17 16 15 14 12 13 14 13 11 5 4 10 2 2 7 14 12 12 10 11 10 7 4 4 9 5 8 12 11 19 17 18 23 24 7 11 19 17 18 19 19
16 14 14 16 16 16 16 16 15 18 17 12 11 7 9 17 4 5 5 8 7 9 8 7 7 9 6 4 2 4 7 13 15 18 12 15 22 29 21 17 22 20 19 18 19
16 14 15 16 17 17 18 18 19 21 17 12 10 6 11 6 8 10 8 5 10 8 2 9 5 5 2 3 1 2 1 6 7 10 10 13 16 19 19 20 21 20 17 15 19
16 15 15 19 18 18 17 18 23 15 7 7 7 5 12 2 7 12 13 9 12 7 6 8 4 2 3 3 2 2 6 10 10 9 3 15 13 21 16 16 18 18 17 14 13
16 16 16 18 17 17 16 16 15 8 5 6 1 4 9 4 6 7 13 19 6 11 7 4 4 5 4 7 6 3 5 8 10 5 5 9 18 16 12 10 13 17 17 13 10
18 17 19 19 17 17 11 5 4 4 7 11 11 7 4 7 8 7 20 13 10 6 7 6 5 11 12 11 9 11 11 15 21 12 11 12 14 14 9 9 10 12 14 13 12
19 19 20 18 22 19 3 4 5 3 11 22 19 15 14 5 4 13 19 11 8 8 9 6 9 12 11 9 11 11 12 17 17 7 8 7 13 9 6 3 5 11 11 16 13
19 18 17 19 21 3 3 9 3 1 6 5 9 9 8 11 6 14 23 11 12 11 14 8 2 17 12 10 10 12 15 15 15 12 9 9 10 2 1 4 1 4 9 11 12
21 18 17 17 6 2 8 7 7 5 5 4 6 6 8 8 6 12 21 15 7 16 13 10 11 10 10 10 12 13 14 19 16 7 8 1 6 5 4 2 4 2 1 10 12
22 20 16 7 11 5 2 7 8 4 6 4 4 5 7 9 6 10 17 10 15 8 7 6 9 13 10 12 11 7 5 8 10 10 6 7 6 3 3 2 3 4 6 7 9
22 23 19 9 6 13 4 6 3 3 7 1 3 5 8 7 2 6 11 5 5 8 4 6 2 5 3 4 8 4 5 2 2 4 8 8 7 6 6 2 3 3 9 10 10
25 26 18 8 5 2 5 5 3 5 3 2 3 1 7 8 6 8 14 14 12 10 10 6 10 5 8 12 6 4 5 5 6 7 8 4 6 7 2 2 5 10 12 12 11
27 29 4 6 14 4 1 4 6 5 4 6 5 16 10 8 7 8 9 13 13 9 5 11 7 7 6 14 9 8 6 7 7 6 5 3 6 2 2 2 3 4 6 8 10
27 4 4 3 7 9 4 5 5 4 3 0 5 5 7 5 3 5 4 8 6 6 10 6 5 2 2 2 7 6 7 1 4 2 5 2 3 4 1 1 5 8 8 10 11
9 6 4 5 13 7 4 5 6 4 3 2 3 7 4 5 0 3 4 0 6 4 6 3 5 2 2 3 6 4 7 4 3 7 10 5 3 5 4 4 3 6 8 9 9
4 6 6 6 7 3 6 6 6 6 2 1 6 6 7 4 2 5 2 3 2 1 2 5 2 2 3 4 3 3 4 3 1 2 6 9 5 2 2 5 6 4 5 6 8
4 4 4 4 5 2 4 5 3 2 2 1 3 6 6 5 4 4 3 3 6 1 1 3 1 4 2 5 3 2 1 1 4 5 1 4 4 4 2 5 5 5 3 4 5
6 5 3 4 4 4 3 5 4 1 2 2 2 1 1 3 1 2 4 3 5 2 2 5 4 2 1 0 2 1 3 4 5 1 7 7 2 3 2 1 0 2 1 5 3
3 4 2 1 2 3 2 5 4 3 3 5 1 1 3 2 5 2 2 4 5 5 9 3 3 4 2 4 2 4 5 3 2 2 5 8 11 5 7 8 7 8 5 7 8
1 1 2 4 1 4 3 4 2 4 3 3 3 2 3 2 2 1 1 1 4 5 4 1 2 2 2 1 1 4 6 7 9 9 9 11 13 13 15 16 17 14 11 10 10
3 3 4 6 7 6 1 1 3 1 1 3 5 5 4 2 1 4 3 0 1 3 3 2 3 0 2 2 3 8 10 11 13 13 15 16 19 17 18 17 14 14 13 11 5
1 2 3 4 6 3 3 4 3 4 3 4 11 6 3 2 3 3 3 3 2 1 3 3 4 2 2 4 7 9 9 10 8 8 9 11 9 11 11 7 6 6 2 7 8
Wind_Direction
338 337 335 334 332 330 328 325 324 324 323 322 329 331 309 305 305 285 245 228 195 235 173 131 114 148 140 140 119 158 221 237 233 225 249 259 274 258 285 267 309 323 310 331 141
335 335 334 334 332 328 325 323 321 319 318 321 328 330 321 320 297 249 242 221 216 161 158 154 140 144 140 143 165 202 227 223 222 247 259 270 294 285 280 272 273 284 44 95 153
335 334 333 331 329 327 325 325 322 318 317 317 321 322 322 327 283 251 232 198 189 173 168 142 142 146 132 164 177 178 239 204 218 236 254 267 274 260 261 256 252 270 330 183 184
335 335 334 331 329 326 323 321 320 319 318 314 314 312 309 278 280 2 98 159 175 177 153 146 155 160 164 187 179 220 223 229 247 241 257 263 279 260 249 253 285 282 288 274 236
332 334 333 330 326 324 318 316 314 310 310 310 308 298 283 224 249 216 139 148 153 166 184 175 168 151 192 178 175 228 243 230 240 251 251 259 254 260 259 276 282 282 282 280 277
332 330 327 325 326 321 314 308 299 304 299 297 286 263 246 249 162 319 203 162 170 169 170 177 187 177 162 185 208 189 246 260 256 249 244 244 250 250 267 269 273 278 275 274 279
328 323 321 324 321 320 316 310 302 300 290 271 266 220 240 248 176 46 118 174 183 181 166 179 160 181 168 209 247 277 297 301 257 251 241 235 260 264 262 258 266 267 265 266 267
324 320 318 319 322 320 320 312 303 305 291 248 236 210 252 246 250 261 185 140 164 175 220 155 138 130 173 327 252 338 278 275 267 228 245 188 267 264 246 238 247 256 254 256 260
322 321 319 323 322 320 315 312 307 312 303 196 194 193 259 266 216 215 181 155 154 155 67 138 144 92 151 223 269 133 270 241 289 207 127 194 253 252 246 232 239 247 250 248 246
321 320 316 318 318 317 308 304 297 303 128 158 197 211 242 221 183 155 174 149 140 143 122 108 116 172 174 190 208 224 248 284 276 5 253 226 255 274 260 240 238 240 242 238 235
323 320 318 319 316 312 312 321 215 201 220 204 195 254 302 320 151 149 158 141 124 162 162 169 177 200 188 201 232 245 264 281 284 276 295 246 261 269 286 236 239 237 237 238 228
321 319 320 316 319 321 258 219 252 356 284 226 231 246 280 289 281 141 170 158 166 171 130 142 232 212 215 218 225 239 262 275 285 291 225 271 271 261 259 197 230 249 237 227 230
322 318 316 312 313 284 241 240 254 2 267 257 200 227 223 188 235 174 175 162 173 185 190 192 223 208 200 214 211 227 238 261 263 310 263 287 257 271 161 302 202 244 281 256 252
324 319 320 321 297 312 275 278 229 210 279 217 217 247 178 206 237 175 185 165 158 196 189 221 225 218 200 241 227 245 234 241 263 264 271 286 298 295 335 257 287 60 219 268 265
321 319 320 324 295 258 213 8 119 198 305 124 157 138 159 191 114 182 185 175 194 160 180 194 191 197 214 229 186 251 188 225 253 238 239 205 253 270 299 306 318 359 345 321 303
314 314 314 293 224 249 238 335 237 232 250 192 125 182 164 210 211 131 168 197 168 189 219 228 201 194 209 224 215 262 243 126 146 198 232 232 234 237 240 226 283 309 315 317 322
312 307 296 247 227 322 180 190 205 233 309 35 347 326 201 188 207 166 175 188 194 196 212 226 240 230 229 259 229 202 222 230 212 205 248 149 204 257 232 292 300 317 326 332 329
311 308 282 216 210 209 248 202 227 267 298 83 28 312 280 179 220 210 157 186 190 229 196 218 225 205 192 215 224 204 223 242 248 239 237 168 222 190 279 354 23 5 348 357 358
316 311 268 237 176 171 222 216 236 227 142 347 189 252 244 146 179 151 151 173 170 180 223 183 224 164 152 152 198 165 215 22 165 86 253 247 234 236 160 99 31 26 22 19 10
318 314 277 127 159 165 211 244 248 235 143 113 26 6 8 6 256 149 166 29 124 72 245 99 242 241 91 158 70 250 132 180 205 231 247 197 245 251 192 178 62 46 41 30 29
316 318 13 154 177 206 224 236 269 270 72 168 146 53 12 324 51 329 65 69 14 267 211 87 339 140 225 36 12 175 193 68 12 281 262 264 246 170 184 188 139 84 49 29 32
340 308 102 197 206 200 220 221 285 357 233 132 115 113 157 255 212 155 135 31 340 247 176 66 105 243 188 7 308 302 72 286 237 213 256 314 255 27 18 147 154 132 83 51 33
323 283 297 218 243 218 245 255 251 189 65 118 126 97 83 163 230 81 107 46 14 65 111 140 195 181 90 341 179 215 98 106 105 132 220 254 242 76 83 93 215 232 49 357 0
305 310 274 238 341 303 336 262 182 85 88 90 204 180 135 75 24 135 111 50 25 68 58 113 159 281 274 71 82 166 164 129 108 208 276 247 278 272 292 288 282 270 279 323 299
236 316 356 328 22 324 266 319 285 166 108 159 136 129 104 124 121 125 92 60 72 6 58 51 210 335 44 59 261 229 233 247 246 250 248 278 274 281 283 288 296 294 282 288 293
303 332 336 294 288 292 218 245 273 141 183 154 136 107 80 131 315 182 153 224 18 62 80 11 133 112 248 348 293 267 265 261 258 260 263 271 277 274 280 287 289 281 277 270 281
247 249 287 296 326 319 341 321 300 159 51 53 133 117 111 76 90 56 64 86 41 64 98 83 139 130 249 357 323 265 255 249 259 253 266 266 321 322 312 333 1 2 359 112 105